Regional Weather Roundup
Issued by NWS

Home | Current Version | Previous Version | Text Only | Print | Product List | Glossary On
Versions: 1 2 3 4 5 6 7 8 9 10 11 12 13 14 15 16 17 18 19 20 21 22 23 24 25 26 27 28 29 30 31 32 33 34 35 36 37 38 39 40 41 42 43 44 45 46 47 48 49 50
000
ASUS43 KBIS 220902
RWRND

NORTH DAKOTA REGIONAL WEATHER ROUNDUP
NATIONAL WEATHER SERVICE BISMARCK ND
400 AM CDT SAT APR 22 2017

NOTE: "FAIR" INDICATES FEW OR NO CLOUDS BELOW 12,000 FEET WITH NO
SIGNIFICANT WEATHER AND/OR OBSTRUCTIONS TO VISIBILITY.


NDZ001>003-009>011-017-221000-
NORTHWEST NORTH DAKOTA

CITY           SKY/WX    TMP DP  RH WIND       PRES   REMARKS
WILLISTON      FAIR      39  34  82 CALM      30.17F
MINOT          FAIR      47  37  68 SW10      30.15F
MINOT AFB      CLEAR     46  38  74 SW14      30.14F
$$

NDZ018>021-031>035-040>046-221000-
SOUTHWEST NORTH DAKOTA

CITY           SKY/WX    TMP DP  RH WIND       PRES   REMARKS
BISMARCK       FAIR      36  34  92 CALM      30.23S
DICKINSON      FAIR      36  32  85 SW9       30.18F
GARRISON         N/A     35  32  88 CALM      30.19S
HETTINGER ARPT CLOUDY    38  34  85 CALM      30.23F
$$

NDZ004>008-012>016-024-026-027-054-221000-
NORTHEAST NORTH DAKOTA

CITY           SKY/WX    TMP DP  RH WIND       PRES   REMARKS
GRAND FORKS    CLOUDY    44  39  82 SW9       30.17F
GRND FRKS AFB  CLOUDY    45  40  82 W9        30.18S
DEVILS LAKE    FAIR      44  39  82 SW7       30.19F
$$

NDZ022-023-025-028>030-036>039-047>053-221000-
SOUTHEAST NORTH DAKOTA

CITY           SKY/WX    TMP DP  RH WIND       PRES   REMARKS
FARGO          CLOUDY    40  36  86 SW8       30.21S
JAMESTOWN      FAIR      42  36  79 SW3       30.21S
$$





USA.gov is the U.S. government's official web portal to all federal, state and local government web resources and services.